Home   Weather   38°24'S, 63°37'W   Past weeks
Flag for Argentina

Past Weather in 38°24'S, 63°37'W, Argentina — Yesterday and Last 2 Weeks

Now
50 °F

Overcast.


Feels Like: 48 °F
Forecast: 81 / 44 °F
Wind: 6 mph from Southwest

Location: Mar Del Plata Aerodrome

Current Time: Oct 19, 2019 at 6:52:59 am

Latest Report: Oct 19, 2019 at 6:00 am


Visibility: N/A

Pressure: 30.18 "Hg

Humidity: 88%

Dew Point: 46 °F

Location of 38°24'S, 63°37'WLocation

Past Weather in 38°24'S, 63°37'W — Graph

°F

38°24'S, 63°37'W Temperature Yesterday

Maximum temperature yesterday: 63 °F (at 2:00 pm)
Minimum temperature yesterday: 52 °F (at 8:00 pm)
Average temperature yesterday: 57 °F

High & Low Weather Summary for the Past Weeks

 TemperatureHumidityPressure
High82 °F (Oct 10, 2:00 pm)100% (Oct 5, 12:00 am)30.57 "Hg (Oct 5, 12:00 am)
Low37 °F (Oct 6, 4:00 am)21% (Oct 10, 2:00 pm)29.62 "Hg (Oct 11, 2:00 am)
Average55 °F71%30.06 "Hg
* Reported Oct 4 5:00 am — Oct 19 5:00 am, 38°24'S, 63°37'W. Weather by CustomWeather, © 2019

Note: Actual official high and low records may vary slightly from our data, if they occured in-between our weather recording intervals... More about our weather records

Advertising

38°24'S, 63°37'W Weather History for the Previous 24 Hours

Scroll right to see more
 ConditionsComfort  
Time TempWeatherWind HumidityBarometerVisibility
5:00 am
Sat, Oct 19
50 °FPassing clouds.9 mph94%30.18 "HgN/A
4:00 am50 °FPassing clouds.6 mph94%30.15 "HgN/A
3:00 am50 °FPassing clouds.6 mph94%30.15 "HgN/A
2:00 am46 °FPassing clouds.3 mph100%30.15 "HgN/A
1:00 am48 °FPassing clouds.3 mph94%30.15 "HgN/A
12:00 am50 °FPassing clouds.8 mph88%30.15 "HgN/A
11:00 pm
Fri, Oct 18
52 °FPassing clouds.9 mph82%30.18 "HgN/A
10:00 pm52 °FPassing clouds.12 mph82%30.15 "HgN/A
9:00 pm54 °FPassing clouds.7 mph82%30.12 "HgN/A
8:00 pm52 °FPassing clouds.10 mph88%30.09 "HgN/A
7:00 pm55 °FPassing clouds.12 mph77%30.07 "HgN/A
6:00 pm57 °FPassing clouds.14 mph77%30.04 "HgN/A
5:00 pm59 °FPassing clouds.13 mph72%30.04 "HgN/A
4:00 pm63 °FPartly sunny.17 mph64%30.04 "HgN/A
3:00 pm63 °FScattered clouds.18 mph59%30.04 "HgN/A
2:00 pm63 °FPartly sunny.17 mph59%30.01 "HgN/A
1:00 pm61 °FPartly sunny.21 mph63%30.01 "HgN/A
12:00 pm61 °FPartly sunny.24 mph63%29.98 "HgN/A
11:00 am61 °FPartly sunny.20 mph63%29.95 "HgN/A
10:00 am57 °FPartly sunny.17 mph77%29.92 "HgN/A
9:00 am55 °FPartly sunny.20 mph77%29.92 "HgN/A
8:00 am54 °FDrizzle. Broken clouds.17 mph88%29.89 "Hg5 mi
7:33 am54 °FDrizzle. Partly sunny.15 mph82%29.86 "Hg4 mi
7:00 am54 °FBroken clouds.14 mph82%29.86 "HgN/A
6:00 am54 °FMostly cloudy.12 mph88%29.86 "HgN/A
Weather by CustomWeather, © 2019

See weather overview